Starlink 35593

operational
NORAD ID: 66106 Int'l Des: 2025-236 Owner: SPXS Country: US Constellation: starlink
NOTLE

Über Starlink 35593

Beschreibung wird geladen...

Live-Position

3D-Globus wird geladen...

Nächste Überflüge

Höhenverlauf

Altitude vs Time

uPlot chart will show altitude changes over time

Zweizeiliger Elementsatz

1 66106C 25236X 25293.06576389 .00535260 00000+0 81514-3 0 2931
2 66106 53.1606 48.3416 0008638 260.4076 263.9145 16.03117953 15
Epoch: 20. Okt. 2025 • Age: 19 hours

Aktueller Status

Höhe 274.8 km
Geschwindigkeit 7.75 km/s
Subsatellitenpunkt 50.99°N, 161.04°W
Startdatum 19. Okt. 2025
Alter 1 days
Typ internet

Technische Details

Klassifizierung Payload
Masse 575.00 kg
Trockenmasse 530.00 kg
Gesamtmasse 575.00 kg
Länge 0.30 m
Durchmesser 4.10 m
Spannweite 29.00 m
Form Box + pan
Hersteller SPXS
Bus-Typ Starlink V2MO
Phasenstatus In Orbit
Besitzer/Staat SPXS/US

Große Konstellationen

Loading constellations...